Location: Bouchavesnes-Bergen
(49.9859°N, 2.9203°E)
Time: 22:03:09
(UTC+00:00)

NOAA 16 DEB - Pass Details

Date: 25 September 2021
Orbit: 798 x 841 km, 98.8° (Epoch: 23 October)

Event Time Altitude Azimuth Distance (km) Brightness Sun altitude
Exits shadow 21:54:05 21° 15° (NNE) 1,737 ? -36.3°
Drops below altitude 10° 21:56:06 10° 360° (N) 2,391 ? -36.5°
Sets 21:58:37 0° 351° (N) 3,323 ? -36.7°
